Content
SEND FEEDBACK

Daily
Averages
Monthly
Summary
Czech Republic

CHEB, CZECH REPUBLIC


Home > Europe > Czech Republic
Elevation: 1545 feet     Latitude: 50 05N     Longitude: 012 24E

WEATHER
 
SELECT A DAY
Number of Records: 87,907;   Date Range: 6/5/97 - 11/21/14
 
SHARE

PRINT THIS DATA

[ ← Previous Day ]
WEATHER ALMANAC - AUGUST 18, 2013
[ Next Day → ]
[ °C ]   °F
Weather ElementAverageHighLow
Temperature69.4 °F80.6 °F (2:00 pm)51.8 °F (5:30 am)
Dewpoint52.7 °F57.2 °F (10:00 am)50 °F (1:00 am)
Humidity57.8 %94 % (5:00 am)34 % (2:00 pm)
Barometer30.03 in30.06 in (10:00 pm)30.01 in (2:00 pm)
Wind Speed5.1 mph11.5 mph (5:30 pm)
Weather ElementAverage
Visibility6.2 mi
Wind DirectionS (183.8 °)

Weather ElementTotal
Precipitation---
Cooling Degree Days1.2 (Base 65)
Growing Degree Days16.2 (Base 50)
Averaged from 37 records on August 18, 2013
WEATHER CONDITIONS BREAKOUT
WIND DIRECTION BREAKOUT
WEATHER BY HOUR - AUGUST 18, 2013
[ °C ]   °F
Local TimeTemperatureDewpointHumidityBarometerVisibilityWind DirectionWind SpeedGust SpeedPrecipitationEventsConditions
1:00 AM59.0 °F50.0 °F72 %30.04 inEast (100°)2.3 mphClear
2:00 AM57.2 °F50.0 °F77 %30.04 inVariable2.3 mphClear
3:00 AM53.6 °F50.0 °F88 %30.04 inEast (100°)4.6 mphClear
4:00 AM55.4 °F50.0 °F82 %30.04 inENE (60°)2.3 mphClear
5:00 AM53.6 °F51.8 °F94 %30.04 inVariable1.2 mphClear
5:30 AM51.8 °F50.0 °F94 %30.04 inEast (100°)2.3 mphClear
6:00 AM51.8 °F50.0 °F94 %30.04 inEast (100°)3.5 mphClear
7:00 AM55.4 °F51.8 °F88 %30.04 inCalmClear
8:00 AM60.8 °F55.4 °F82 %30.04 inEast (90°)3.5 mphClear
8:30 AM66.2 °F55.4 °F68 %30.04 inESE (110°)4.6 mphClear
9:00 AM71.6 °F53.6 °F53 %30.04 inVariable2.3 mphClear
9:30 AM71.6 °F55.4 °F57 %30.04 inVariable2.3 mphClear
10:00 AM68.0 °F57.2 °F68 %30.04 inNW (320°)3.5 mphClear
10:30 AM71.6 °F57.2 °F60 %30.04 inNNW (330°)4.6 mphClear
11:00 AM75.2 °F57.2 °F53 %30.04 inVariable2.3 mphClear
11:30 AM77.0 °F55.4 °F47 %30.04 inWSW (240°)6.9 mphClear
12:00 PM77.0 °F55.4 °F47 %30.04 in6.2 miVariable5.8 mphPartly Cloudy
12:30 PM77.0 °F55.4 °F47 %30.04 in6.2 miWNW (290°)8.1 mphPartly Cloudy
1:00 PM77.0 °F55.4 °F47 %30.04 in6.2 miNW (310°)6.9 mphPartly Cloudy
1:30 PM78.8 °F55.4 °F44 %30.04 inWest (280°)4.6 mphClear
2:00 PM80.6 °F50.0 °F34 %30.01 inWSW (240°)9.2 mphClear
2:30 PM78.8 °F51.8 °F39 %30.01 inWSW (250°)6.9 mphClear
3:00 PM78.8 °F51.8 °F39 %30.01 inWSW (240°)5.8 mphClear
3:30 PM78.8 °F51.8 °F39 %30.01 inSW (230°)5.8 mphClear
4:00 PM78.8 °F51.8 °F39 %30.01 inWSW (250°)6.9 mphClear
4:30 PM77.0 °F51.8 °F41 %30.01 inWSW (250°)5.8 mphClear
5:00 PM77.0 °F51.8 °F41 %30.01 inWest (260°)9.2 mphClear
5:30 PM75.2 °F55.4 °F50 %30.01 inWest (280°)11.5 mphClear
6:00 PM73.4 °F53.6 °F50 %30.04 inWest (280°)11.5 mphClear
6:30 PM73.4 °F51.8 °F47 %30.04 inWest (270°)8.1 mphClear
7:00 PM71.6 °F50.0 °F46 %30.04 inWest (270°)5.8 mphClear
7:30 PM71.6 °F51.8 °F50 %30.04 inWSW (250°)3.5 mphClear
8:00 PM69.8 °F50.0 °F49 %30.04 inWest (260°)4.6 mphClear
8:30 PM69.8 °F50.0 °F49 %30.04 inWSW (250°)3.5 mphClear
9:00 PM69.8 °F50.0 °F49 %30.04 inWest (260°)4.6 mphClear
10:00 PM68.0 °F51.8 °F56 %30.06 inWest (270°)8.1 mphClear
11:00 PM66.2 °F51.8 °F60 %30.06 inWest (260°)5.8 mphClear
Hourly data recorded from LKKV, located miles away from Cheb, Czech Republic







STORIES FROM OUR PARTNERS